KC8YVF-1 Weather Reports


Display with metric or nautical units.
time (UTC)temp
F
wind
direction
speed
MPH
gust
MPH
rain 1hr
in
rain 24hr
in
rain mn
in
humidity
%
barometer
mb
20180722162403 68 90 0.0 0.0 0.00 0.36 0.00 85 997.9
20180722161901 68 90 1.0 0.0 0.00 0.36 0.00 85 997.9
20180722161645 68 113 1.0 7.0 0.00 0.36 0.00 86 997.9
20180722161402 68 90 0.0 0.0 0.00 0.36 0.00 86 997.9
20180722160901 68 45 0.0 0.0 0.00 0.36 0.00 87 997.8
20180722160400 67 23 0.0 0.0 0.00 0.36 0.00 86 997.8
20180722160146 67 23 0.0 0.0 0.00 0.36 0.00 86 997.9
20180722154902 67 45 0.0 0.0 0.00 0.36 0.00 84 998.3
20180722154649 67 0 0.0 0.0 0.00 0.36 0.00 84 998.3
20180722154400 67 90 0.0 0.0 0.00 0.36 0.00 83 998.3
20180722153900 68 45 0.0 0.0 0.00 0.36 0.00 83 998.3
20180722153403 69 113 1.0 2.0 0.00 0.36 0.00 83 998.1
20180722153147 69 45 1.0 6.0 0.00 0.36 0.00 83 997.9
20180722152902 69 45 2.0 1.0 0.00 0.36 0.00 82 997.9
20180722151902 70 45 0.0 0.0 0.00 0.36 0.00 82 997.8
20180722151647 70 68 0.0 0.0 0.00 0.36 0.00 82 997.8
20180722150902 70 0 0.0 0.0 0.00 0.36 0.00 82 997.6
20180722150145 70 113 0.0 0.0 0.00 0.36 0.00 82 997.6
20180722145901 70 113 0.0 0.0 0.00 0.36 0.00 82 997.3
20180722145401 70 90 0.0 0.0 0.00 0.36 0.00 83 997.5
20180722144646 70 90 1.0 3.0 0.00 0.36 0.00 84 997.2
20180722144402 70 45 0.0 0.0 0.00 0.36 0.00 84 997.3
20180722143402 70 45 1.0 8.0 0.00 0.36 0.00 85 997.2
20180722143147 71 90 0.0 1.0 0.00 0.36 0.00 85 997.2
20180722142901 70 90 1.0 0.0 0.00 0.36 0.00 85 997.2
20180722142401 71 90 2.0 5.0 0.00 0.36 0.00 86 997.2
20180722141901 70 90 0.0 0.0 0.00 0.36 0.00 86 997.2
20180722141647 70 90 0.0 0.0 0.00 0.36 0.00 86 997.2
20180722141401 70 45 0.0 0.0 0.00 0.36 0.00 86 997.2
20180722140901 70 90 0.0 0.0 0.00 0.36 0.00 86 997.2
20180722140401 70 0 0.0 0.0 0.00 0.36 0.00 87 997.2
20180722140145 70 90 0.0 0.0 0.00 0.36 0.00 87 997.2
20180722134902 69 90 0.0 0.0 0.00 0.36 0.00 88 997.1
20180722134648 70 90 0.0 0.0 0.00 0.36 0.00 88 997.0
20180722134416 69 113 0.0 0.0 0.00 0.36 0.00 88 997.0
20180722133402 70 45 1.0 7.0 0.00 0.36 0.00 88 997.1
20180722133146 70 315 2.0 0.0 0.00 0.36 0.00 88 997.2
20180722132902 70 0 0.0 0.0 0.00 0.36 0.00 88 996.9
20180722131902 70 68 0.0 0.0 0.00 0.36 0.00 88 996.9
20180722131645 70 45 0.0 0.0 0.00 0.36 0.00 88 996.9
20180722131401 70 90 0.0 0.0 0.00 0.36 0.00 88 996.9
20180722130901 70 45 0.0 0.0 0.00 0.36 0.00 88 996.9
20180722130400 70 90 0.0 0.0 0.00 0.36 0.00 89 996.9
20180722130146 70 0 0.0 0.0 0.00 0.36 0.00 89 996.9
20180722125902 69 90 0.0 0.0 0.00 0.36 0.00 89 996.6
20180722125402 69 45 0.0 0.0 0.00 0.36 0.00 89 996.7
20180722124645 70 90 0.0 1.0 0.00 0.36 0.00 89 996.9
20180722124401 70 90 0.0 0.0 0.00 0.36 0.00 89 996.6
20180722123902 69 90 0.0 0.0 0.00 0.36 0.00 89 996.9
20180722123403 69 90 0.0 0.0 0.00 0.38 0.00 89 996.9
20180722123148 69 90 0.0 0.0 0.00 0.38 0.00 94 996.9
20180722122901 69 45 0.0 0.0 0.00 0.38 0.00 96 996.9
20180722122401 69 90 0.0 0.0 0.00 0.38 0.00 96 996.9
20180722121901 69 23 0.0 0.0 0.00 0.38 0.00 96 996.9
20180722121646 69 45 0.0 0.0 0.00 0.38 0.00 96 996.9
20180722120146 69 338 0.0 0.0 0.00 0.38 0.00 96 996.6
20180722115902 69 338 0.0 0.0 0.00 0.38 0.00 96 996.6
20180722114645 69 0 0.0 0.0 0.00 0.38 0.00 96 996.6
20180722114401 69 338 0.0 0.0 0.00 0.38 0.00 96 996.6
20180722113401 69 23 0.0 0.0 0.00 0.38 0.00 96 996.6
20180722113145 68 45 0.0 0.0 0.00 0.38 0.00 96 996.6
20180722112902 68 45 0.0 0.0 0.00 0.38 0.00 96 996.6
20180722112402 68 45 0.0 0.0 0.00 0.38 0.00 96 996.6
20180722111908 68 0 0.0 0.0 0.00 0.38 0.00 96 996.6
20180722111647 68 68 0.0 0.0 0.00 0.38 0.00 96 996.6
20180722110402 68 23 0.0 0.0 0.00 0.38 0.00 96 996.6
20180722110145 68 23 0.0 0.0 0.00 0.38 0.00 96 996.6
20180722105901 68 45 0.0 0.0 0.00 0.38 0.00 96 996.6
20180722105402 68 45 0.0 0.0 0.00 0.38 0.00 96 996.6
20180722104902 68 23 0.0 0.0 0.00 0.38 0.00 96 996.3
20180722104646 68 23 0.0 0.0 0.00 0.38 0.00 96 996.3
20180722104401 68 45 0.0 0.0 0.00 0.38 0.00 91 996.2
20180722103901 68 45 0.0 0.0 0.00 0.38 0.00 91 996.2
20180722103402 68 45 0.0 0.0 0.00 0.38 0.00 91 996.2
20180722103147 68 45 0.0 0.0 0.00 0.38 0.00 91 996.2
20180722102901 68 90 0.0 0.0 0.00 0.38 0.00 91 996.2
20180722102402 68 68 0.0 0.0 0.00 0.38 0.00 91 996.2
20180722101903 68 23 0.0 0.0 0.00 0.38 0.00 91 996.2
20180722101646 68 23 0.0 0.0 0.00 0.38 0.00 91 996.2
20180722101402 68 23 0.0 0.0 0.00 0.38 0.00 91 996.2
20180722100402 68 68 0.0 0.0 0.00 0.38 0.00 91 996.2
20180722100147 68 68 0.0 0.0 0.00 0.38 0.00 91 996.2
20180722095902 68 45 0.0 0.0 0.00 0.38 0.00 91 996.2
20180722095402 68 23 0.0 0.0 0.00 0.38 0.00 91 996.2
20180722094902 68 0 0.0 0.0 0.00 0.38 0.00 91 996.2
20180722094646 68 45 0.0 0.0 0.00 0.38 0.00 91 996.2
20180722093401 68 23 0.0 0.0 0.00 0.38 0.00 91 996.2
20180722093146 68 45 0.0 0.0 0.00 0.38 0.00 91 996.2
20180722092902 68 45 0.0 0.0 0.00 0.38 0.00 91 996.2
20180722091901 68 45 0.0 0.0 0.00 0.38 0.00 91 996.0
20180722091646 68 23 0.0 0.0 0.00 0.38 0.00 91 995.9
20180722090402 68 23 0.0 0.0 0.00 0.38 0.00 91 996.2
20180722090144 68 23 0.0 0.0 0.00 0.38 0.00 91 996.2
20180722085901 68 23 0.0 0.0 0.00 0.38 0.00 91 996.2
20180722085401 68 23 0.0 0.0 0.00 0.38 0.00 91 995.9
20180722084901 68 338 0.0 0.0 0.00 0.38 0.00 91 995.9
20180722084648 68 68 0.0 0.0 0.00 0.38 0.00 91 995.9
20180722084401 68 68 0.0 0.0 0.00 0.38 0.00 91 995.9
20180722083904 68 45 0.0 0.0 0.00 0.38 0.00 91 995.9
20180722083145 68 68 0.0 0.0 0.00 0.38 0.00 91 995.8
20180722082902 68 68 0.0 0.0 0.00 0.38 0.00 91 995.9
20180722082401 68 68 0.0 0.0 0.00 0.38 0.00 91 995.9
20180722081901 68 23 0.0 0.0 0.00 0.38 0.00 91 995.9
20180722081645 68 45 0.0 0.0 0.00 0.38 0.00 91 995.9
20180722081402 68 45 0.0 0.0 0.00 0.38 0.00 91 995.9
20180722080902 68 45 0.0 0.0 0.00 0.38 0.00 91 995.9
20180722080402 68 68 0.0 0.0 0.00 0.38 0.00 91 995.9
20180722080146 68 68 0.0 0.0 0.00 0.38 0.00 91 995.9
20180722075402 68 45 0.0 0.0 0.00 0.38 0.00 91 995.9
20180722074902 68 45 0.0 0.0 0.00 0.38 0.00 91 995.6
20180722074645 68 45 0.0 0.0 0.00 0.38 0.00 91 995.7
20180722074400 68 45 0.0 0.0 0.00 0.38 0.00 91 995.8
20180722073901 68 45 0.0 0.0 0.00 0.38 0.00 91 995.8
20180722073147 68 45 0.0 0.0 0.00 0.38 0.00 91 995.5
20180722072901 68 68 0.0 0.0 0.00 0.38 0.00 91 995.8
20180722072401 68 68 0.0 0.0 0.00 0.38 0.00 91 995.7
20180722071900 68 68 0.0 0.0 0.00 0.38 0.00 91 995.8
20180722071646 68 68 0.0 0.0 0.00 0.38 0.00 91 995.8
20180722071402 68 68 0.0 0.0 0.00 0.38 0.00 91 995.9
20180722070146 68 68 0.0 0.0 0.00 0.38 0.00 91 995.9
20180722065901 68 45 0.0 0.0 0.00 0.38 0.00 91 995.9
20180722065401 68 45 0.0 0.0 0.00 0.38 0.00 91 995.9
20180722064901 68 68 0.0 0.0 0.00 0.38 0.00 91 995.9
20180722064646 68 68 0.0 0.0 0.00 0.38 0.00 91 995.9
20180722064401 68 68 0.0 0.0 0.00 0.38 0.00 91 995.9
20180722063900 68 23 0.0 0.0 0.00 0.38 0.00 91 996.2
20180722063146 68 68 0.0 0.0 0.00 0.38 0.00 91 996.1
20180722062402 68 45 0.0 0.0 0.00 0.38 0.00 91 996.2
20180722061901 68 90 0.0 0.0 0.00 0.38 0.00 91 996.2
20180722061645 68 45 0.0 0.0 0.00 0.38 0.00 91 996.2
20180722060901 68 45 0.0 0.0 0.00 0.38 0.00 91 996.2
20180722060400 68 45 0.0 0.0 0.00 0.38 0.00 91 996.2
20180722060147 68 90 0.0 0.0 0.00 0.38 0.00 91 996.2
20180722055402 68 90 0.0 0.0 0.00 0.38 0.00 91 996.2
20180722054902 68 68 0.0 0.0 0.00 0.38 0.00 91 996.2
20180722054648 68 68 0.0 0.0 0.00 0.38 0.00 91 996.2
20180722054401 68 113 0.0 0.0 0.00 0.38 0.00 91 996.2
20180722053901 69 45 0.0 0.0 0.00 0.38 0.00 91 996.2
20180722053401 69 90 0.0 0.0 0.00 0.38 0.00 91 996.2
20180722053147 69 90 0.0 0.0 0.00 0.38 0.00 91 996.5
20180722051901 69 90 0.0 0.0 0.00 0.38 0.00 91 996.6
20180722051645 69 90 0.0 0.0 0.00 0.38 0.00 91 996.3
20180722051402 69 90 0.0 0.0 0.00 0.38 0.00 91 996.5
20180722050902 69 68 0.0 0.0 0.00 0.38 0.00 96 996.4
20180722050402 69 68 0.0 0.0 0.00 0.38 0.00 96 996.4
20180722050147 69 68 0.0 0.0 0.00 0.38 0.00 96 996.4
20180722045402 69 68 0.0 0.0 0.00 0.38 0.00 96 996.2
20180722044902 69 68 0.0 0.0 0.00 0.38 0.00 96 996.2
20180722044646 69 68 0.0 0.0 0.00 0.38 0.00 96 996.2
20180722044401 69 90 0.0 0.0 0.00 0.38 0.00 96 996.2
20180722043902 69 90 0.0 0.0 0.00 0.38 0.00 96 996.3
20180722043402 69 113 0.0 0.0 0.00 0.38 0.00 96 996.2
20180722043146 69 68 0.0 0.0 0.00 0.38 0.00 96 996.2
20180722042401 69 90 0.0 0.0 0.02 0.38 0.00 91 996.2
20180722041901 69 90 0.0 0.0 0.02 0.38 0.00 89 996.2
20180722041646 69 68 0.0 0.0 0.02 0.38 0.00 89 996.2
20180722041402 69 68 0.0 0.0 0.02 0.38 0.00 89 996.2
20180722040901 69 23 0.0 0.0 0.02 0.38 0.00 89 996.2
20180722040401 69 68 0.0 0.0 0.02 0.38 0.00 89 996.2
20180722040146 69 68 0.0 0.0 0.02 0.38 0.00 89 996.2
20180722035901 69 90 0.0 0.0 0.02 0.38 0.38 89 996.2
20180722034646 69 113 0.0 0.0 0.02 0.38 0.38 89 996.6
20180722034402 69 113 0.0 0.0 0.02 0.38 0.38 88 996.6
20180722033902 70 90 0.0 0.0 0.02 0.38 0.38 88 996.6
20180722033402 70 90 0.0 0.0 0.02 0.38 0.38 88 996.6
20180722033144 70 90 0.0 0.0 0.02 0.38 0.38 88 996.6
20180722032401 70 90 0.0 0.0 0.00 0.36 0.36 88 996.6
20180722031647 70 90 0.0 0.0 0.00 0.36 0.36 87 996.6
20180722031401 70 90 0.0 0.0 0.00 0.36 0.36 87 996.6
20180722030901 70 113 0.0 0.0 0.00 0.36 0.36 87 996.6
20180722030401 70 68 0.0 1.0 0.00 0.36 0.36 87 996.6
20180722030146 70 113 0.0 0.0 0.00 0.36 0.36 87 996.6
20180722024901 70 90 0.0 0.0 0.00 0.36 0.36 86 996.6
20180722024647 70 113 0.0 0.0 0.00 0.36 0.36 86 996.6
20180722024402 70 68 0.0 0.0 0.00 0.36 0.36 86 996.6
20180722023902 70 45 0.0 0.0 0.00 0.36 0.36 86 996.6
20180722023403 70 90 0.0 0.0 0.00 0.36 0.36 86 996.6
20180722023145 70 90 0.0 0.0 0.00 0.36 0.36 86 996.6
20180722022902 70 90 0.0 0.0 0.00 0.36 0.36 86 996.6
20180722021901 70 90 0.0 0.0 0.00 0.36 0.36 86 996.6
20180722021645 70 68 0.0 0.0 0.00 0.36 0.36 86 996.6
20180722021402 70 23 0.0 0.0 0.00 0.36 0.36 86 996.6
20180722020901 70 23 0.0 0.0 0.00 0.36 0.36 86 996.6
20180722020145 70 23 0.0 0.0 0.00 0.36 0.36 86 996.6
20180722015402 70 90 0.0 0.0 0.00 0.36 0.36 86 996.6
20180722014647 70 90 0.0 0.0 0.00 0.36 0.36 86 996.6
20180722014401 70 68 0.0 0.0 0.00 0.36 0.36 85 996.6
20180722013902 70 90 0.0 0.0 0.00 0.36 0.36 85 996.6
20180722013402 70 90 0.0 0.0 0.00 0.36 0.36 85 996.6
20180722013147 70 90 0.0 0.0 0.00 0.36 0.36 85 996.6
20180722012901 70 90 0.0 0.0 0.00 0.36 0.36 85 996.3
20180722011902 70 68 0.0 0.0 0.00 0.36 0.36 85 996.2
20180722011648 71 90 0.0 0.0 0.00 0.36 0.36 85 996.2
20180722011402 71 90 0.0 0.0 0.00 0.36 0.36 85 996.2
20180722010906 71 90 0.0 0.0 0.00 0.36 0.36 85 996.2
20180722010146 71 90 0.0 0.0 0.00 0.36 0.36 85 995.9
20180722005902 71 90 0.0 0.0 0.00 0.36 0.36 85 995.9
20180722005400 71 113 0.0 0.0 0.00 0.36 0.36 85 995.9
20180722004900 71 113 0.0 0.0 0.00 0.36 0.36 85 995.9
20180722004645 71 113 0.0 0.0 0.00 0.36 0.36 85 995.9
20180722004402 71 90 1.0 5.0 0.00 0.36 0.36 85 995.9
20180722003902 71 113 0.0 0.0 0.00 0.36 0.36 85 995.7
20180722003401 71 113 0.0 0.0 0.00 0.36 0.36 85 995.5
20180722003146 71 113 0.0 0.0 0.00 0.36 0.36 85 995.5
20180722002903 71 113 0.0 0.0 0.00 0.36 0.36 85 995.5
20180722002402 71 90 0.0 0.0 0.00 0.36 0.36 85 995.5
20180722001902 71 158 0.0 0.0 0.00 0.36 0.36 85 995.5
20180722001645 71 113 0.0 0.0 0.00 0.36 0.36 85 995.5
20180722001406 71 90 0.0 0.0 0.00 0.36 0.36 85 995.5
20180722000401 71 158 0.0 0.0 0.00 0.36 0.36 85 995.5
20180722000146 71 158 0.0 0.0 0.00 0.36 0.36 85 995.5
20180721235901 71 90 1.0 6.0 0.00 0.36 0.36 85 995.5
20180721235401 71 203 0.0 0.0 0.00 0.36 0.36 85 995.5
20180721234901 71 90 1.0 0.0 0.00 0.36 0.36 86 995.5
20180721234646 71 135 0.0 1.0 0.00 0.36 0.36 86 995.5
20180721234402 71 180 0.0 0.0 0.00 0.36 0.36 86 995.5
20180721233147 71 158 0.0 0.0 0.02 0.36 0.36 85 995.5
20180721232902 71 158 0.0 0.0 0.02 0.36 0.36 86 995.5
20180721232402 71 135 0.0 0.0 0.02 0.36 0.36 85 995.4
20180721231903 71 113 0.0 0.0 0.02 0.36 0.36 85 995.5
20180721231645 71 158 0.0 3.0 0.02 0.36 0.36 85 995.5
20180721231402 71 203 0.0 0.0 0.02 0.36 0.36 85 995.3
20180721230902 71 158 0.0 0.0 0.02 0.36 0.36 85 995.2
20180721230146 72 180 0.0 0.0 0.02 0.36 0.36 85 995.3
20180721225902 72 113 0.0 0.0 0.02 0.36 0.36 85 995.2
20180721225402 72 158 0.0 0.0 0.02 0.36 0.36 84 995.2
20180721224902 72 203 0.0 0.0 0.02 0.36 0.36 84 995.2
20180721224646 72 203 0.0 0.0 0.02 0.36 0.36 84 995.2
20180721224402 73 158 0.0 0.0 0.02 0.36 0.36 84 995.2
20180721223902 73 180 0.0 0.0 0.02 0.36 0.36 84 995.0
20180721223145 74 203 0.0 0.0 0.00 0.34 0.34 83 995.2
20180721222902 74 180 0.0 1.0 0.00 0.34 0.34 83 995.2
20180721222402 74 180 2.0 8.0 0.00 0.34 0.34 84 994.9
20180721221902 74 270 0.0 5.0 0.00 0.34 0.34 85 994.9
20180721221647 74 270 0.0 0.0 0.00 0.34 0.34 85 995.1
20180721220901 73 45 0.0 0.0 0.00 0.34 0.34 84 994.9
20180721220401 73 113 0.0 0.0 0.00 0.34 0.34 85 994.9
20180721220145 73 90 0.0 0.0 0.00 0.34 0.34 85 994.9
20180721215902 73 90 1.0 2.0 0.00 0.34 0.34 85 994.9
20180721215401 73 113 0.0 1.0 0.00 0.34 0.34 85 994.9
20180721214901 73 158 2.0 8.0 0.00 0.34 0.34 85 994.9
20180721214646 73 113 0.0 0.0 0.00 0.34 0.34 85 994.9
20180721214402 73 158 0.0 0.0 0.00 0.34 0.34 85 994.9
20180721213902 73 90 0.0 0.0 0.00 0.34 0.34 85 994.9
20180721213402 73 90 0.0 0.0 0.00 0.34 0.34 85 994.9
20180721213145 73 90 0.0 0.0 0.00 0.34 0.34 85 994.9
20180721212902 73 90 0.0 5.0 0.00 0.34 0.34 85 994.9
20180721212402 73 113 0.0 0.0 0.00 0.34 0.34 85 994.9
20180721211901 73 113 0.0 0.0 0.00 0.34 0.34 85 994.9
20180721211645 73 68 2.0 3.0 0.00 0.34 0.34 85 994.9
20180721210401 73 135 0.0 0.0 0.00 0.34 0.34 85 994.9
20180721210145 73 158 0.0 0.0 0.00 0.34 0.34 85 994.9
20180721205902 74 158 0.0 0.0 0.00 0.34 0.34 85 994.9
20180721204902 74 113 0.0 0.0 0.00 0.34 0.34 86 994.5
20180721204647 74 113 0.0 0.0 0.00 0.34 0.34 86 994.5
20180721204401 74 90 0.0 0.0 0.00 0.34 0.34 86 994.5
20180721203901 74 158 0.0 3.0 0.00 0.34 0.34 86 994.5
20180721203401 74 113 0.0 0.0 0.00 0.34 0.34 86 994.5
20180721203146 74 113 0.0 0.0 0.00 0.34 0.34 86 994.5
20180721202902 74 90 0.0 0.0 0.00 0.34 0.34 86 994.5
20180721201902 74 180 0.0 0.0 0.00 0.34 0.34 87 994.5
20180721201645 74 180 0.0 0.0 0.00 0.34 0.34 87 994.5
20180721201401 74 180 0.0 0.0 0.00 0.34 0.34 87 994.5
20180721200146 74 113 0.0 0.0 0.02 0.34 0.34 88 994.5
20180721195903 73 90 1.0 0.0 0.02 0.34 0.34 88 994.5
20180721194902 73 180 0.0 0.0 0.02 0.34 0.34 88 994.5
20180721194646 72 180 0.0 0.0 0.02 0.34 0.34 88 994.5
20180721193902 72 113 0.0 0.0 0.02 0.34 0.34 88 994.5
20180721193147 72 135 0.0 0.0 0.02 0.34 0.34 88 994.5
20180721192901 71 113 0.0 0.0 0.02 0.34 0.34 88 994.6
20180721192402 71 90 1.0 2.0 0.02 0.34 0.34 88 994.5
20180721191646 71 90 0.0 0.0 0.02 0.34 0.34 87 994.5
20180721191402 71 113 0.0 0.0 0.02 0.32 0.34 87 994.7
20180721190902 71 113 0.0 0.0 0.00 0.32 0.32 87 994.6
20180721190401 71 68 0.0 0.0 0.02 0.32 0.32 87 994.7
20180721190146 71 113 0.0 2.0 0.02 0.32 0.32 87 994.7
20180721185902 71 180 0.0 0.0 0.02 0.32 0.32 87 994.8
20180721184901 71 180 0.0 0.0 0.04 0.32 0.32 87 994.8
20180721184646 71 180 0.0 0.0 0.04 0.32 0.32 87 994.9
20180721183902 71 113 0.0 0.0 0.12 0.32 0.32 87 994.5
20180721183402 71 158 0.0 0.0 0.18 0.32 0.32 87 994.5
20180721183145 71 113 0.0 0.0 0.20 0.32 0.32 87 994.5
20180721182902 71 113 0.0 0.0 0.22 0.32 0.32 87 994.5
20180721182402 71 113 0.0 0.0 0.28 0.32 0.32 87 994.5
20180721181902 70 113 0.0 0.0 0.30 0.32 0.32 86 994.2
20180721181646 70 113 0.0 0.0 0.30 0.32 0.32 86 994.2
20180721181402 70 135 0.0 0.0 0.30 0.32 0.32 85 994.2
20180721180902 70 158 0.0 0.0 0.30 0.32 0.32 84 994.2
20180721180147 70 158 0.0 0.0 0.28 0.30 0.30 84 994.2
20180721175402 70 180 0.0 0.0 0.28 0.30 0.30 83 994.2
20180721174646 71 180 0.0 0.0 0.26 0.28 0.28 82 994.2
20180721174401 71 180 0.0 0.0 0.24 0.26 0.26 82 994.2
20180721173902 71 180 0.0 0.0 0.18 0.20 0.20 81 994.2
20180721173402 72 180 0.0 0.0 0.12 0.14 0.14 81 994.2
20180721173146 72 180 0.0 0.0 0.10 0.10 0.12 81 994.2
20180721172901 72 180 0.0 0.0 0.08 0.08 0.10 81 994.2
20180721172401 72 180 0.0 0.0 0.02 0.04 0.04 80 994.2
20180721171901 73 203 0.0 0.0 0.00 0.02 0.02 80 994.2
20180721171644 73 203 0.0 0.0 0.00 0.02 0.02 80 994.2
20180721171402 73 180 0.0 0.0 0.00 0.02 0.02 80 994.2
20180721170403 73 180 0.0 0.0 0.00 0.02 0.02 80 994.2
20180721170146 73 180 0.0 0.0 0.00 0.02 0.02 79 994.3
20180721165902 74 180 0.0 0.0 0.00 0.02 0.02 79 994.2
20180721164646 75 180 0.0 0.0 0.00 0.02 0.02 79 994.2
20180721164403 75 180 0.0 0.0 0.00 0.02 0.02 79 994.2
20180721163402 75 180 0.0 0.0 0.00 0.02 0.02 80 994.2
20180721163145 75 180 0.0 0.0 0.00 0.02 0.02 80 994.2